Regional Weather Roundup
Issued by NWS

Home | Current Version | Previous Version | Graphics & Text | Print | Product List | Glossary On
Versions: 1 2 3 4 5 6 7 8 9 10 11 12 13 14 15 16 17 18 19 20 21 22 23 24 25 26 27 28 29 30 31 32 33 34 35 36 37 38 39 40 41 42 43 44 45 46 47 48 49 50
000
ASUS43 KIND 031409
RWRIN

WEATHER ROUNDUP FOR INDIANA
NATIONAL WEATHER SERVICE INDIANAPOLIS IN
1000 AM EDT SUN MAY 03 2015

NOTE: "FAIR" INDICATES FEW OR NO CLOUDS BELOW 12,000 FEET WITH NO
SIGNIFICANT WEATHER AND/OR OBSTRUCTIONS TO VISIBILITY.

* - STATION DOES NOT REPORT WEATHER SUCH AS PRECIPITATION OR FOG.

+ - STATION NOT QUALITY CONTROLLED BY THE NATIONAL WEATHER SERVICE.
    USE DATA WITH CAUTION...ESPECIALLY DEWPOINT AND RELATIVE
    HUMIDITY OBSERVATIONS.

INZ001>003-010>013-019-020-031500-
NORTHWEST INDIANA

CITY           SKY/WX    TMP DP  RH WIND       PRES   REMARKS
GARY /AIRPORT/ PTSUNNY   68 N/A N/A S9        30.00F
KNOX *+        PTSUNNY   68  21  17 SW12      30.03S
LA PORTE +     CLOUDY    69  45  42 S10       30.04S
MICHIGAN CITY+ PTSUNNY   68  36  30 S9        30.02S
MONTICELLO +   MOSUNNY   66  50  55 S8        30.05S
VALPARAISO     CLOUDY    66  44  45 S12       30.02F

$$

LMZ046-743>745-031500-
SOUTHERN LAKE MICHIGAN

STATION/POSITION TIME  TEMP    WIND        PRES    WAVE
                       AIR SEA DIR/SP/G            HT
                 (UTC) (F)     (DEG/KT/KT) (MB)    (FT)
BURNS HARBOR     1400   66     190/ 13/ 17 1016.6S
MICHIGAN CITY    1400   65     160/ 11/ 13   N/A
5NW MICH CITY    1400   59 50  200/  8/ 12   N/A     1

$$

INZ004-005-014>016-021>024-031500-
NORTH CENTRAL INDIANA

CITY           SKY/WX    TMP DP  RH WIND       PRES   REMARKS
ELKHART        SUNNY     66  41  39 S7        30.04F
GOSHEN         SUNNY     68  47  46 S10       30.05F
LOGANSPORT +   MOSUNNY   66  45  45 SW9       30.07S
PERU/GRISSOM   MOSUNNY   67  51  56 S10       30.06S
ROCHESTER +    SUNNY     68  46  45 SW8       30.06S
SOUTH BEND     SUNNY     69  44  40 SW9       30.04S
WARSAW +       SUNNY     66  46  48 S6        30.06F

$$

INZ006>009-017-018-025>027-031500-
NORTHEAST INDIANA

CITY           SKY/WX    TMP DP  RH WIND       PRES   REMARKS
ANGOLA *+      SUNNY     68  52  56 SW10      30.06F
AUBURN +       SUNNY     68  45  42 SW7       30.08F
FORT WAYNE     MOSUNNY   67  48  50 SW10      30.09F
HUNTINGTON +   SUNNY     66  47  50 SW6       30.07F

$$

INZ028-029-035-036-043>045-051>053-031500-
WEST CENTRAL INDIANA

CITY           SKY/WX    TMP DP  RH WIND       PRES   REMARKS
CRAWFORDSVL +  CLOUDY    64  43  47 S8        30.08S
GREENCASTLE +  MOSUNNY   63  46  55 S6        30.10S
LAFAYETTE      MOSUNNY   64  49  57 VRB5      30.05S
TERRE HAUTE    SUNNY     68  49  50 S9        30.08S

$$

INZ030>032-037>040-046>048-054>057-064-065-031500-
CENTRAL INDIANA

CITY           SKY/WX    TMP DP  RH WIND       PRES   REMARKS
CP ATTERBURY + CLOUDY    68  50  52 S5        30.11S
FISHERS *+     CLOUDY    64  52  63 SW8       30.10S
FRANKFORT +    MOSUNNY   62  51  66 S6        30.09S
GREENWOOD *+   CLOUDY    66  46  48 SW7       30.11S
INDIANAPOLIS   CLOUDY    64  47  53 S9        30.08S
-EAGLE CREEK   CLOUDY    63  48  58 S6        30.09S
MARION +       MOSUNNY   66  46  48 S10       30.09F
MT COMFORT *+  MOSUNNY   66  37  34 S9        30.10S
SHELBYVILLE    MOSUNNY   66  50  56 S10       30.11S
ZIONSVILLE +   MOSUNNY   64  48  56 S8        30.10S

$$

INZ033-034-041-042-049-050-058-059-031500-
EAST CENTRAL INDIANA

CITY           SKY/WX    TMP DP  RH WIND       PRES   REMARKS
MUNCIE         SUNNY     67  47  48 SW8       30.10S

$$

INZ060-061-067>069-081>083-085>088-031500-
SOUTHWEST INDIANA

CITY           SKY/WX    TMP DP  RH WIND       PRES   REMARKS
EVANSVILLE     MOSUNNY   66  50  56 S5        30.11R
HUNTINGBURG *+ MOSUNNY   64  50  59 S10       30.12R
WASHINGTON +   MOSUNNY   65  48  54 S9        30.10S

$$

INZ062-063-066-070>080-084-089>092-031500-
SOUTH CENTRAL AND SOUTHEAST INDIANA

CITY           SKY/WX    TMP DP  RH WIND       PRES   REMARKS
BEDFORD +      CLOUDY    59  46  63 S3        30.12R
BLOOMINGTON    CLOUDY    62  50  64 SE3       30.11R
MADISON *+     PTSUNNY   64  46  52 S6        30.15S
NORTH VERNON + PTSUNNY   64  50  59 S5        30.13S
SEYMOUR +      PTSUNNY   66  50  55 S7        30.11F

$$



USA.gov is the U.S. government's official web portal to all federal, state and local government web resources and services.